Regional Weather Roundup
Issued by NWS

Home | Current Version | Previous Version | Text Only | Print | Product List | Glossary On
Versions: 1 2 3 4 5 6 7 8 9 10 11 12 13 14 15 16 17 18 19 20 21 22 23 24 25 26 27 28 29 30 31 32 33 34 35 36 37 38 39 40 41 42 43 44 45 46 47 48 49 50
701
ASUS43 KTOP 221208
RWRKS

WEATHER ROUNDUP FOR KANSAS
NATIONAL WEATHER SERVICE GOODLAND KS
700 AM CDT WED MAR 22 2017

NOTE:  "FAIR" INDICATES FEW OR NO CLOUDS BELOW 12,000 FEET WITH NO
SIGNIFICANT WEATHER AND/OR OBSTRUCTIONS TO VISIBILITY.

KSZ001>006-013>018-027>032-041>047-221300-
NORTHWEST KANSAS

CITY           SKY/WX    TMP DP  RH WIND       PRES   REMARKS
GOODLAND       CLOUDY    37  32  82 SE17      30.20S WCI  27
6HR MIN TEMP:  37; 6HR MAX TEMP:  42;

HAYS             N/A     40  24  53 E15       30.27F WCI  32
HILL CITY      PTCLDY    34  25  69 E7        30.28S
6HR MIN TEMP:  34; 6HR MAX TEMP:  40; 6HR PCP: TRACE;

RUSSELL        CLOUDY    40  25  55 NE10      30.28S WCI  33
6HR MIN TEMP:  39; 6HR MAX TEMP:  45;

$$

KSZ061>065-074>080-084>089-221300-
SOUTHWEST KANSAS

CITY           SKY/WX    TMP DP  RH WIND       PRES   REMARKS
DODGE CITY     CLOUDY    42  30  62 NE12      30.24R
6HR MIN TEMP:  42; 6HR MAX TEMP:  50; 6HR PCP: TRACE;

ELKHART          N/A     38  27  65 S5          N/A
GARDEN CITY    CLOUDY    42  32  67 E12       30.22R
6HR MIN TEMP:  42; 6HR MAX TEMP:  48;

GREAT BEND     CLOUDY    42  24  49 E13       30.28R
LIBERAL        CLOUDY    46  27  46 E9        30.21F
PRATT          CLOUDY    41  25  51 NE12      30.24F
6HR MIN TEMP:  41; 6HR MAX TEMP:  49;

$$

KSZ066>073-081>083-090>101-221300-
SOUTHEAST KANSAS

CITY           SKY/WX    TMP DP  RH WIND       PRES   REMARKS
CHANUTE        CLOUDY    47  25  42 NE15G21   30.29R
6HR MIN TEMP:  47; 6HR MAX TEMP:  54;

COFFEYVILLE    CLOUDY    50  32  50 NE15      30.26R
6HR MIN TEMP:  50; 6HR MAX TEMP:  58;

HUTCHINSON     CLOUDY    44  23  43 E15       30.25F
6HR MIN TEMP:  44; 6HR MAX TEMP:  50;

MEDICINE LODGE   N/A     46  32  58 NE12      30.22R
NEWTON         CLOUDY    43  24  47 E20G25    30.25F
PARSONS        CLOUDY    48  27  44 NE14G21   30.28R
6HR MIN TEMP:  48; 6HR MAX TEMP:  57;

WICHITA INTL   MOCLDY    46  24  42 E23G31    30.20F
6HR MIN TEMP:  46; 6HR MAX TEMP:  53;

WICHITA JABRA  CLOUDY    45  24  43 E20G26    30.23F
6HR MIN TEMP:  45; 6HR MAX TEMP:  51;

WICHITA MCCONL CLOUDY    46  22  38 E21G28    30.22F
WINFIELD       CLOUDY    49  24  37 E15       30.23F
6HR MIN TEMP:  49; 6HR MAX TEMP:  55;

$$

KSZ007>012-019>026-033>040-048>060-102>105-221300-
NORTHEAST KANSAS

CITY           SKY/WX    TMP DP  RH WIND       PRES   REMARKS
CONCORDIA      PTCLDY    37  24  59 E12       30.31R WCI  29
6HR MIN TEMP:  37; 6HR MAX TEMP:  41;

EMPORIA        CLOUDY    43  26  51 E14       30.32R
6HR MIN TEMP:  42; 6HR MAX TEMP:  48;

LAWRENCE       CLOUDY    38  24  57 NE7       30.37R
6HR MIN TEMP:  38; 6HR MAX TEMP:  45;

MANHATTAN      CLOUDY    40  24  53 E15       30.32F WCI  32
6HR MIN TEMP:  40; 6HR MAX TEMP:  45;

MARYSVILLE     MOCLDY    36  25  64 E12G17    30.35F WCI  27
OLATHE IND     CLOUDY    38  22  52 E9        30.36R
6HR MIN TEMP:  38; 6HR MAX TEMP:  45;

OLATHE EXE     CLEAR     37  23  56 E14       30.35R WCI  28
6HR MIN TEMP:  37; 6HR MAX TEMP:  44;

SALINA         CLOUDY    44  25  47 E10       30.29S
6HR MIN TEMP:  44; 6HR MAX TEMP:  47;

TOPEKA BILLARD MOCLDY    39  25  57 E8        30.37R
6HR MIN TEMP:  39; 6HR MAX TEMP:  45;

TOPEKA FORBES  PTCLDY    39  24  55 NE6       30.36R
6HR MIN TEMP:  39; 6HR MAX TEMP:  46;

$$




USA.gov is the U.S. government's official web portal to all federal, state and local government web resources and services.